When you browse on this site, cookies collect data to enhance your experience and personalize the content and advertising you see.
Visit our Privacy Policy to learn more. By continuing to use the site, you agree to this use of cookies and data.
  • en Suisse
  • Liste des pays
  • À 7 jours
  • Température de l'eau
  • Carte satellitaire
  • Carte météo
  • Widgets météo
  • user-avatar
    Se connecter

    Météo par heure à Tomashivka

    Ce jour, 20 Juillet, Samedi

    Heure Température Précipitation Vent Pression Humidité
    00:00 +21°C° 0 mm 2 m/s 762 mmHg 62%
    01:00 +22°C° 0 mm 1 m/s 762 mmHg 64%
    02:00 +21°C° 0 mm 1 m/s 762 mmHg 65%
    03:00 +22°C° 0 mm 1 m/s 762 mmHg 64%
    04:00 +22°C° 0 mm 1 m/s 762 mmHg 63%
    05:00 +22°C° 0 mm 1 m/s 763 mmHg 62%
    06:00 +24°C° 0 mm 1 m/s 763 mmHg 54%
    07:00 +26°C° 0 mm 1 m/s 763 mmHg 47%
    08:00 +28°C° 0 mm 1 m/s 763 mmHg 40%
    09:00 +29°C° 0 mm 2 m/s 763 mmHg 38%
    10:00 +30°C° 0 mm 3 m/s 763 mmHg 36%
    11:00 +30°C° 0 mm 3 m/s 763 mmHg 35%
    12:00 +31°C° 0 mm 3 m/s 763 mmHg 34%
    13:00 +31°C° 0 mm 3 m/s 763 mmHg 34%
    14:00 +32°C° 0 mm 4 m/s 763 mmHg 34%
    15:00 +31°C° 0 mm 3 m/s 763 mmHg 34%
    16:00 +31°C° 0 mm 3 m/s 763 mmHg 34%
    17:00 +31°C° 0 mm 3 m/s 763 mmHg 34%
    18:00 +29°C° 0 mm 3 m/s 763 mmHg 38%
    19:00 +27°C° 0 mm 2 m/s 763 mmHg 43%
    20:00 +26°C° 0 mm 2 m/s 763 mmHg 47%
    21:00 +25°C° 0 mm 1 m/s 763 mmHg 50%
    22:00 +25°C° 0 mm 1 m/s 763 mmHg 53%
    23:00 +22°C° 0 mm 0 m/s 763 mmHg 56%

    Demain, 21 Juillet, Dimanche

    Heure Température Précipitation Vent Pression Humidité
    00:00 +22°C° 0 mm 0 m/s 763 mmHg 55%
    01:00 +24°C° 0 mm 1 m/s 763 mmHg 55%
    02:00 +23°C° 0 mm 1 m/s 763 mmHg 54%
    03:00 +23°C° 0 mm 2 m/s 762 mmHg 55%
    04:00 +24°C° 0 mm 2 m/s 762 mmHg 56%
    05:00 +24°C° 0 mm 3 m/s 762 mmHg 56%
    06:00 +25°C° 0 mm 3 m/s 762 mmHg 51%
    07:00 +27°C° 0 mm 3 m/s 762 mmHg 45%
    08:00 +28°C° 0 mm 3 m/s 762 mmHg 40%
    09:00 +29°C° 0 mm 3 m/s 762 mmHg 37%
    10:00 +30°C° 0 mm 3 m/s 762 mmHg 34%
    11:00 +31°C° 0 mm 3 m/s 762 mmHg 31%
    12:00 +33°C° 0 mm 3 m/s 762 mmHg 30%
    13:00 +33°C° 0 mm 3 m/s 761 mmHg 30%
    14:00 +33°C° 0 mm 3 m/s 761 mmHg 29%
    15:00 +33°C° 0 mm 3 m/s 761 mmHg 30%
    16:00 +33°C° 0 mm 3 m/s 761 mmHg 31%
    17:00 +31°C° 0 mm 3 m/s 761 mmHg 33%
    18:00 +29°C° 0 mm 3 m/s 761 mmHg 38%
    19:00 +28°C° 0 mm 2 m/s 761 mmHg 44%
    20:00 +26°C° 0 mm 1 m/s 761 mmHg 50%
    21:00 +26°C° 0 mm 1 m/s 762 mmHg 52%
    22:00 +25°C° 0 mm 1 m/s 762 mmHg 54%
    23:00 +25°C° 0 mm 1 m/s 762 mmHg 55%

    Après-demain, 22 Juillet, Lundi

    Heure Température Précipitation Vent Pression Humidité
    00:00 +24°C° 0 mm 1 m/s 762 mmHg 56%
    01:00 +24°C° 0 mm 1 m/s 762 mmHg 57%
    02:00 +23°C° 0 mm 1 m/s 762 mmHg 58%
    03:00 +23°C° 0 mm 2 m/s 762 mmHg 59%
    04:00 +23°C° 0 mm 2 m/s 762 mmHg 60%
    05:00 +21°C° 0 mm 2 m/s 762 mmHg 61%
    06:00 +25°C° 0 mm 2 m/s 762 mmHg 54%
    07:00 +27°C° 0 mm 2 m/s 762 mmHg 48%
    08:00 +29°C° 0 mm 1 m/s 762 mmHg 41%
    09:00 +30°C° 0 mm 2 m/s 762 mmHg 39%
    10:00 +31°C° 0 mm 2 m/s 762 mmHg 37%
    11:00 +33°C° 0 mm 3 m/s 762 mmHg 35%
    12:00 +33°C° 0 mm 3 m/s 761 mmHg 36%
    13:00 +33°C° 0 mm 3 m/s 761 mmHg 36%
    14:00 +33°C° 0 mm 4 m/s 761 mmHg 37%
    15:00 +33°C° 0 mm 4 m/s 761 mmHg 37%
    16:00 +33°C° 0 mm 4 m/s 760 mmHg 38%
    17:00 +32°C° 0 mm 4 m/s 760 mmHg 38%
    18:00 +30°C° 0 mm 3 m/s 760 mmHg 44%
    19:00 +28°C° 0 mm 3 m/s 760 mmHg 49%
    20:00 +26°C° 0 mm 2 m/s 760 mmHg 54%
    21:00 +26°C° 0 mm 2 m/s 760 mmHg 57%
    22:00 +25°C° 0 mm 2 m/s 760 mmHg 59%
    23:00 +25°C° 0 mm 3 m/s 760 mmHg 62%

    23 Juillet, Mardi

    Heure Température Précipitation Vent Pression Humidité
    00:00 +24°C° 0 mm 2 m/s 760 mmHg 65%
    01:00 +24°C° 0 mm 2 m/s 759 mmHg 68%
    02:00 +24°C° 0 mm 1 m/s 759 mmHg 72%
    03:00 +24°C° 0 mm 2 m/s 759 mmHg 73%
    04:00 +23°C° 0 mm 2 m/s 759 mmHg 74%
    05:00 +23°C° 0 mm 2 m/s 759 mmHg 75%
    06:00 +25°C° 0 mm 3 m/s 759 mmHg 69%
    07:00 +26°C° 0 mm 3 m/s 758 mmHg 64%
    08:00 +27°C° 0 mm 4 m/s 758 mmHg 59%
    09:00 +27°C° 0 mm 4 m/s 758 mmHg 61%
    10:00 +27°C° 0 mm 4 m/s 758 mmHg 63%
    11:00 +26°C° 0 mm 4 m/s 758 mmHg 65%
    12:00 +26°C° 0.1 mm 4 m/s 758 mmHg 64%
    13:00 +26°C° 0.1 mm 3 m/s 758 mmHg 64%
    14:00 +26°C° 0.1 mm 2 m/s 758 mmHg 63%
    15:00 +26°C° 0.2 mm 2 m/s 758 mmHg 63%
    16:00 +26°C° 0.2 mm 2 m/s 758 mmHg 64%
    17:00 +26°C° 0.2 mm 3 m/s 757 mmHg 64%
    18:00 +25°C° 0.4 mm 2 m/s 757 mmHg 68%
    19:00 +24°C° 0.4 mm 2 m/s 758 mmHg 73%
    20:00 +23°C° 0.4 mm 1 m/s 758 mmHg 78%
    21:00 +23°C° 0.1 mm 1 m/s 758 mmHg 78%
    22:00 +23°C° 0.1 mm 2 m/s 758 mmHg 78%
    23:00 +23°C° 0.1 mm 2 m/s 758 mmHg 79%

    24 Juillet, Mercredi

    Heure Température Précipitation Vent Pression Humidité
    00:00 +23°C° 0.7 mm 1 m/s 757 mmHg 80%
    01:00 +22°C° 0.7 mm 1 m/s 757 mmHg 82%
    02:00 +22°C° 0.7 mm 1 m/s 757 mmHg 84%
    03:00 +22°C° 1.5 mm 1 m/s 757 mmHg 85%
    04:00 +22°C° 1.5 mm 1 m/s 757 mmHg 87%
    05:00 +21°C° 1.5 mm 1 m/s 757 mmHg 89%
    06:00 +23°C° 0.3 mm 1 m/s 757 mmHg 82%
    07:00 +24°C° 0.3 mm 1 m/s 757 mmHg 76%
    08:00 +25°C° 0.3 mm 1 m/s 757 mmHg 69%
    09:00 +26°C° 0.1 mm 2 m/s 757 mmHg 64%
    10:00 +27°C° 0.1 mm 2 m/s 757 mmHg 59%
    11:00 +28°C° 0.1 mm 2 m/s 757 mmHg 54%
    12:00 +28°C° 0.3 mm 2 m/s 757 mmHg 53%
    13:00 +28°C° 0.3 mm 2 m/s 757 mmHg 52%
    14:00 +28°C° 0.3 mm 2 m/s 757 mmHg 51%
    15:00 +28°C° 0.1 mm 2 m/s 757 mmHg 51%
    16:00 +28°C° 0.1 mm 1 m/s 756 mmHg 51%
    17:00 +28°C° 0.1 mm 1 m/s 756 mmHg 51%
    18:00 +27°C° 0.2 mm 2 m/s 756 mmHg 56%
    19:00 +26°C° 0.2 mm 2 m/s 756 mmHg 60%
    20:00 +25°C° 0.2 mm 2 m/s 756 mmHg 65%
    21:00 +25°C° 0.4 mm 2 m/s 756 mmHg 66%
    22:00 +24°C° 0.4 mm 3 m/s 756 mmHg 68%
    23:00 +24°C° 0.4 mm 3 m/s 757 mmHg 70%

    25 Juillet, Jeudi

    Heure Température Précipitation Vent Pression Humidité
    00:00 +24°C° 0.2 mm 3 m/s 756 mmHg 72%
    01:00 +22°C° 0.2 mm 3 m/s 756 mmHg 74%
    02:00 +22°C° 0.2 mm 4 m/s 756 mmHg 77%
    03:00 +22°C° 0.3 mm 4 m/s 756 mmHg 77%
    04:00 +22°C° 0.3 mm 3 m/s 756 mmHg 78%
    05:00 +22°C° 0.3 mm 3 m/s 756 mmHg 79%
    06:00 +22°C° 0.5 mm 4 m/s 756 mmHg 78%
    07:00 +22°C° 0.5 mm 5 m/s 756 mmHg 78%
    08:00 +22°C° 0.5 mm 5 m/s 756 mmHg 77%
    09:00 +22°C° 0.5 mm 5 m/s 756 mmHg 77%
    10:00 +22°C° 0.5 mm 5 m/s 756 mmHg 78%
    11:00 +21°C° 0.5 mm 5 m/s 756 mmHg 78%
    12:00 +21°C° 0.3 mm 5 m/s 756 mmHg 79%
    13:00 +21°C° 0.3 mm 4 m/s 756 mmHg 81%
    14:00 +21°C° 0.3 mm 4 m/s 756 mmHg 82%
    15:00 +21°C° 0.3 mm 3 m/s 756 mmHg 79%
    16:00 +22°C° 0.3 mm 3 m/s 756 mmHg 76%
    17:00 +24°C° 0.3 mm 2 m/s 756 mmHg 73%
    18:00 +23°C° 0.4 mm 2 m/s 756 mmHg 74%
    19:00 +23°C° 0.4 mm 2 m/s 756 mmHg 74%
    20:00 +23°C° 0.4 mm 2 m/s 756 mmHg 75%
    21:00 +21°C° 0 mm 2 m/s 755 mmHg 75%
    22:00 +21°C° 0 mm 2 m/s 755 mmHg 75%
    23:00 +20°C° 0 mm 2 m/s 755 mmHg 74%
    Voir plus